Location: PSU-Greenbush Astrophysical Observatory
(37.5140°N, 94.9880°W)
Time: 14:52:08
(UTC-06:00)

deb Explorer IX - Pass Details

Date: 24 January 2020
Orbit: 549 x 1099 km, 38.8° (Epoch: 21 February)

Event Time Altitude Azimuth Distance (km) Brightness Sun altitude
Rises 00:24:49 0° 268° (W) 3,871 - -71.7°
Reaches altitude 10° 00:27:34 10° 269° (W) 2,938 - -71.8°
Maximum altitude 00:34:54 81° 357° (N) 1,104 - -71.8°
Drops below altitude 10° 00:41:59 10° 85° (E) 2,838 - -71.7°
Sets 00:44:35 0° 86° (E) 3,733 - -71.6°
